Location: Melbourne
(37.8170°S, 144.9670°E)
Time: 12:07:12
(UTC+11:00)

deb Explorer IX - All Passes

Search period start: 29 March 2015 00:00
Search period end: 07 April 2015 23:00
Orbit: 551 x 1163 km, 38.8° (Epoch: 26 March)

Date Brightness Start Highest point End Pass type
(mag) Time Alt. Az. Time Alt. Az. Time Alt. Az.
29 Mar - 01:00:58 10° NNE 01:04:01 14° NE 01:07:34 10° ENE night (unlit)
29 Mar - 02:44:39 10° NW 02:51:08 47° NNE 02:58:21 10° E visible
29 Mar - 04:31:53 10° WNW 04:39:13 88° N 04:47:00 10° E visible
29 Mar - 06:20:09 10° W 06:27:50 85° S 06:35:28 10° E visible
29 Mar - 08:08:36 10° WSW 08:16:12 62° NNW 08:23:17 10° NE daylight
29 Mar - 09:58:02 10° W 10:03:42 23° NW 10:08:47 10° N daylight
30 Mar - 00:48:01 10° N 00:51:35 16° NE 00:55:41 10° E night (unlit)
30 Mar - 02:32:16 10° NW 02:38:44 51° NNE 02:46:00 10° E visible
30 Mar - 04:19:36 10° W 04:26:52 89° SSW 04:34:38 10° E visible
30 Mar - 06:07:51 10° W 06:15:29 87° S 06:23:09 10° E visible
30 Mar - 07:56:15 10° WSW 08:03:47 57° NNW 08:10:54 10° NE daylight
30 Mar - 09:45:53 10° W 09:51:14 21° NW 09:56:03 10° N daylight
31 Mar - 00:35:10 10° N 00:39:06 18° NE 00:43:37 10° E night (unlit)
31 Mar - 02:19:52 10° NW 02:26:17 55° NNE 02:33:35 10° ESE visible
31 Mar - 04:07:18 10° W 04:14:27 87° S 04:22:13 10° E visible
31 Mar - 05:55:29 10° W 06:03:03 89° S 06:10:45 10° E visible
31 Mar - 07:43:52 10° W 07:51:18 53° NNW 07:58:24 10° NE daylight
31 Mar - 09:33:46 10° W 09:38:42 18° NW 09:43:09 10° N daylight
01 Apr - 00:22:22 10° N 00:26:34 20° NE 00:31:24 10° E night (unlit)
01 Apr - 02:07:27 10° NW 02:13:48 59° NNE 02:21:05 10° ESE visible
01 Apr - 03:54:56 10° W 04:02:00 85° S 04:09:44 10° E visible
01 Apr - 05:43:04 10° W 05:50:34 88° NNW 05:58:18 10° ENE visible
01 Apr - 07:31:25 10° W 07:38:46 49° NNW 07:45:50 10° NE daylight
01 Apr - 09:21:41 10° WNW 09:26:07 16° NW 09:30:04 10° N daylight
02 Apr - 00:09:36 10° N 00:14:00 22° NE 00:19:05 10° E night (unlit)
02 Apr - 01:55:01 10° WNW 02:01:16 64° NNE 02:08:32 10° ESE visible
02 Apr - 03:42:32 10° W 03:49:30 84° S 03:57:12 10° E visible
02 Apr - 05:30:37 10° W 05:38:02 85° NNW 05:45:46 10° ENE visible
02 Apr - 07:18:57 10° W 07:26:09 44° NNW 07:33:10 10° NE daylight
02 Apr - 09:09:43 10° WNW 09:13:29 14° NW 09:16:45 10° NNW daylight
02 Apr - 23:56:51 10° NNW 00:01:23 25° NE 00:06:39 10° E night (unlit)
03 Apr - 01:42:32 10° WNW 01:48:42 68° NNE 01:55:55 10° ESE night (unlit)
03 Apr - 03:30:07 10° W 03:36:57 83° S 03:44:36 10° E visible
03 Apr - 05:18:06 10° W 05:25:26 82° NNW 05:33:10 10° ENE visible
03 Apr - 07:06:28 10° W 07:13:29 41° NNW 07:20:24 10° NE visible
03 Apr - 08:58:00 10° WNW 09:00:47 12° NW 09:03:05 10° NNW daylight
03 Apr - 23:44:06 10° NNW 23:48:44 27° NE 23:54:08 10° E night (unlit)
04 Apr - 01:30:02 10° WNW 01:36:05 73° NNE 01:43:14 10° ESE night (unlit)
04 Apr - 03:17:37 10° W 03:24:21 83° S 03:31:57 10° E visible
04 Apr - 05:05:34 10° WSW 05:12:47 78° NNW 05:20:29 10° ENE visible
04 Apr - 06:53:56 10° W 07:00:45 37° NNW 07:07:32 10° NNE visible
04 Apr - 23:31:22 10° NNW 23:36:02 30° NE 23:41:31 10° E night (unlit)
05 Apr - 01:17:30 10° WNW 01:23:27 77° NNE 01:30:30 10° ESE night (unlit)
05 Apr - 02:05:06 10° W 02:11:42 82° S 02:19:14 10° E visible
05 Apr - 03:52:58 10° WSW 04:00:04 74° NNW 04:07:44 10° ENE visible
05 Apr - 05:41:23 10° W 05:47:58 33° NNW 05:54:33 10° NNE visible
05 Apr - 22:18:36 10° NNW 22:23:18 33° NNE 22:28:50 10° E night (unlit)
06 Apr - 00:04:56 10° WNW 00:10:45 81° NNE 00:17:43 10° E night (unlit)
06 Apr - 01:52:31 10° W 01:59:00 83° S 02:06:27 10° E visible
06 Apr - 03:40:20 10° WSW 03:47:18 69° NNW 03:54:54 10° ENE visible
06 Apr - 05:28:49 10° W 05:35:07 30° NW 05:41:28 10° NNE visible
06 Apr - 22:05:50 10° NNW 22:10:32 36° NNE 22:16:06 10° E night (unlit)
06 Apr - 23:52:19 10° WNW 23:58:02 85° NNE 00:04:53 10° E night (unlit)
07 Apr - 01:39:54 10° W 01:46:15 84° S 01:53:37 10° E visible
07 Apr - 03:27:39 10° W 03:34:28 65° NNW 03:41:59 10° ENE visible
07 Apr - 05:16:15 10° W 05:22:14 27° NW 05:28:16 10° NNE visible
07 Apr - 21:53:02 10° NW 21:57:43 39° NNE 22:03:17 10° E night (unlit)
